This demonstration page uses our WeatherBlox Daily Observations layout. Learn more.

Left ArrowRight Arrow

36.19886, -115.1175

Hourly Observations for December 3, 2021

Temp ( °F °C ) Dew Point ( °F °C ) Humidity (%) Winds ( mph kmh ) Pressure ( in mb ) Visibility ( mi km ) Precip ( " mm )
12:53 am 00:53 Clear 54 12.2 27 -2.8 35 35 NW 7 11 30.12 1020 10 16 0.00 0.00
1:53 am 01:53 Clear 55 12.8 25 -3.9 31 31 NW 9 15 30.12 1020 10 16 0.00 0.00
2:53 am 02:53 Clear 54 12.2 24 -4.4 31 31 Calm 30.13 1020 10 16 0.00 0.00
3:53 am 03:53 Clear 53 11.7 26 -3.3 35 35 Calm 30.13 1020 10 16 0.00 0.00
4:53 am 04:53 Clear 53 11.7 24 -4.4 32 32 NW 6 9 30.14 1021 10 16 0.00 0.00
5:53 am 05:53 Clear 49 9.4 25 -3.9 39 39 WNW 3 6 30.15 1021 10 16 0.00 0.00
6:53 am 06:53 Sunny 49 9.4 28 -2.2 44 44 WNW 3 6 30.16 1022 10 16 0.00 0.00
7:53 am 07:53 Sunny 54 12.2 26 -3.3 34 34 Calm 30.17 1022 10 16 0.00 0.00
8:53 am 08:53 Sunny 59 15 26 -3.3 28 28 Calm 30.18 1022 10 16 0.00 0.00
9:53 am 09:53 Sunny 64 17.8 24 -4.4 22 22 Calm 30.17 1022 10 16 0.00 0.00
10:53 am 10:53 Sunny 65 18.3 25 -3.9 22 22 Calm 30.15 1021 10 16 0.00 0.00
11:53 am 11:53 Sunny 68 20 25 -3.9 20 20 Calm 30.12 1020 10 16 0.00 0.00
12:53 pm 12:53 Sunny 69 20.6 26 -3.3 20 20 SE 3 6 30.09 1019 10 16 0.00 0.00
1:53 pm 13:53 Sunny 70 21.1 26 -3.3 19 19 Calm 30.08 1019 10 16 0.00 0.00
2:53 pm 14:53 Sunny 70 21.1 26 -3.3 19 19 Calm 30.06 1018 10 16 0.00 0.00
3:53 pm 15:53 Sunny 70 21.1 26 -3.3 19 19 Calm 30.07 1018 10 16 0.00 0.00
4:53 pm 16:53 Clear 67 19.4 26 -3.3 21 21 Calm 30.08 1019 10 16 0.00 0.00
5:53 pm 17:53 Clear 62 16.7 28 -2.2 28 28 WNW 5 7 30.10 1019 10 16 0.00 0.00
6:53 pm 18:53 Clear 58 14.4 30 -1.1 35 35 WNW 6 9 30.12 1020 10 16 0.00 0.00
7:53 pm 19:53 Clear 56 13.3 29 -1.7 36 36 W 6 9 30.13 1020 10 16 0.00 0.00
8:53 pm 20:53 Clear 55 12.8 28 -2.2 35 35 N 5 7 30.13 1020 10 16 0.00 0.00
9:53 pm 21:53 Clear 52 11.1 27 -2.8 38 38 WNW 3 6 30.14 1021 10 16 0.00 0.00
10:53 pm 22:53 Clear 52 11.1 27 -2.8 38 38 WNW 6 9 30.14 1021 10 16 0.00 0.00
11:53 pm 23:53 Clear 52 11.1 27 -2.8 38 38 WNW 7 11 30.14 1021 10 16 0.00 0.00

Powered by AerisWeather